Theta_e
307 307 307 307 307 308 308 308 308 308 308 308 308 308 309 309 309 309 309 309 308 308 307 308 307 305 305 305 305 304 304 308 314 317 318 319 320 318 317 316 313 312 310 312 316 316 316 318 321 320 318 316 316 315 317 318 317 317 317 315 313 314 315 317 318 316 317 318 318 318 318 318 317 319 320 319 319 321 325 331 341 343 342 341 341 346 349 348
307 307 307 307 307 308 308 308 308 308 308 308 308 308 309 309 309 309 308 308 308 307 307 306 304 304 304 305 304 303 306 312 317 318 318 319 320 319 317 316 314 310 309 313 317 318 318 319 320 319 317 315 315 315 316 317 316 316 317 314 313 316 318 318 318 317 318 317 318 318 318 318 317 318 318 318 319 321 324 327 340 345 344 344 344 346 349 348
307 307 307 307 307 307 307 308 308 308 308 308 308 308 308 309 309 309 309 308 308 308 307 304 303 304 303 304 303 303 309 316 317 318 319 319 320 319 315 313 314 310 309 314 318 319 319 319 319 318 316 315 315 314 315 318 316 315 316 314 315 317 318 319 318 318 318 317 317 317 317 318 317 318 318 318 319 319 322 320 334 346 347 347 346 347 349 349
307 306 307 307 307 307 307 307 308 308 308 308 308 308 308 308 309 309 309 309 309 308 306 303 303 303 303 304 303 304 312 317 316 319 320 320 318 315 312 311 313 310 308 313 318 320 319 319 319 318 316 315 315 315 315 317 315 316 315 315 316 318 318 318 318 318 317 317 317 317 317 316 317 319 317 318 318 318 320 322 337 346 348 348 346 347 349 350
306 306 306 306 307 307 307 307 307 307 307 308 308 308 308 308 308 308 309 309 309 308 305 301 302 302 303 303 302 306 313 316 318 321 317 317 313 310 309 312 313 310 308 313 319 320 318 319 319 317 315 315 315 314 315 316 316 315 315 316 316 317 317 318 318 317 317 317 316 316 316 316 317 318 318 318 317 319 320 326 340 343 345 347 345 346 348 349
306 306 306 306 306 307 307 307 307 307 307 307 308 308 308 308 308 308 309 308 309 308 305 302 301 302 302 302 302 309 314 315 320 320 314 313 311 309 310 313 312 310 311 315 321 321 318 318 318 317 315 315 316 314 315 316 316 315 316 316 316 317 317 318 318 317 317 316 316 316 316 316 317 317 318 318 317 320 319 326 340 342 342 345 345 347 349 350
306 306 306 306 306 306 307 306 307 307 307 307 307 308 308 308 308 308 308 308 308 308 305 302 302 302 302 301 306 313 315 314 318 318 314 312 310 310 311 313 309 310 316 318 322 321 317 318 317 317 315 315 315 315 315 315 316 315 315 316 316 317 317 318 317 317 317 316 316 316 316 316 316 317 317 318 318 320 319 324 339 341 340 342 344 348 350 348
305 305 306 306 306 306 306 306 306 307 307 307 307 307 307 307 307 308 308 308 308 306 304 302 302 302 302 305 312 315 316 317 319 315 311 309 309 311 312 311 308 313 320 320 322 320 318 318 317 317 315 315 315 315 316 315 315 315 315 316 316 316 317 317 317 317 316 316 316 316 316 316 316 317 316 318 317 319 320 320 334 341 339 339 343 347 346 343
305 305 306 306 306 306 306 306 306 306 307 307 307 307 307 307 307 307 307 308 307 305 302 302 302 302 303 309 314 313 316 321 319 312 309 310 309 310 311 311 310 315 321 320 320 318 318 317 316 317 315 315 315 315 316 315 315 315 315 315 315 316 316 317 316 317 316 316 316 315 316 316 316 316 316 317 317 318 320 319 328 340 340 340 345 346 343 345
305 305 305 305 306 306 306 306 306 306 306 306 307 307 307 307 307 306 306 307 306 305 302 302 302 301 305 311 313 315 316 319 320 316 315 313 310 310 312 313 313 316 319 319 319 317 317 316 316 317 315 315 315 314 316 315 315 315 316 316 316 316 315 316 316 316 316 316 317 316 316 316 316 316 315 316 317 317 319 321 321 333 341 342 343 343 343 347
305 305 305 305 305 305 306 306 306 306 306 306 306 306 306 306 306 306 306 306 305 303 301 301 301 302 309 312 313 316 313 315 321 319 318 315 312 312 314 314 313 316 319 318 318 317 317 316 316 316 314 314 314 314 315 315 316 315 316 316 316 317 316 316 316 317 317 316 316 316 316 316 316 315 315 316 318 318 319 322 320 334 342 340 345 352 346 344
305 305 305 305 305 305 305 305 306 306 306 306 306 306 306 306 306 306 306 305 303 301 301 301 300 305 312 312 312 315 311 313 318 319 319 316 314 315 316 316 315 317 318 316 317 316 316 316 315 314 313 313 313 313 314 315 315 315 315 315 315 316 316 316 316 316 316 316 316 316 314 314 315 315 316 316 317 318 320 320 324 338 341 339 344 353 345 342
304 305 305 305 305 305 305 305 305 305 306 306 305 305 305 306 306 305 304 303 301 303 305 302 302 309 314 313 314 313 311 312 315 319 319 316 315 316 318 317 315 317 316 316 317 315 315 315 314 314 313 313 313 314 315 315 315 315 315 314 314 314 314 316 316 315 316 316 316 315 311 312 316 315 316 317 317 317 321 321 324 338 341 340 340 343 343 345
304 304 305 305 305 305 305 305 305 305 305 305 304 303 304 305 304 303 303 304 305 307 308 305 305 311 314 315 316 312 312 313 315 318 317 316 316 317 318 316 316 316 317 317 317 316 315 315 314 313 314 313 314 315 316 316 314 315 314 314 314 310 311 316 316 315 316 316 317 315 309 311 315 315 316 317 317 317 321 320 321 337 341 339 342 345 346 348
304 304 304 305 305 305 305 305 305 305 305 304 302 301 301 302 302 303 305 307 308 308 308 306 306 313 316 316 316 312 311 312 315 316 316 316 317 317 317 316 316 316 317 317 316 316 315 314 313 312 313 313 314 314 315 315 315 315 312 310 313 310 311 316 317 316 315 315 316 314 309 311 315 316 317 317 318 317 319 320 319 335 342 341 344 345 345 347
304 304 304 304 304 304 304 304 304 305 304 302 300 299 299 302 304 306 308 306 306 307 308 310 310 313 315 316 315 312 310 310 312 314 315 316 317 318 317 316 317 317 317 317 316 316 314 314 313 312 313 314 314 313 314 314 313 314 312 308 310 310 311 314 316 316 316 316 316 314 311 313 315 316 318 317 318 317 318 320 318 332 341 343 344 343 342 344
304 304 304 304 304 304 304 304 304 304 303 300 299 297 300 306 308 308 308 306 306 308 310 314 314 313 314 315 314 313 312 311 310 312 315 316 317 317 316 316 316 317 317 317 316 315 314 313 313 312 313 313 314 313 312 310 309 312 313 311 311 312 311 311 314 317 317 316 315 316 314 314 315 316 318 318 318 317 319 320 318 330 339 340 341 340 340 341
303 304 303 304 304 304 304 304 304 304 302 299 297 299 305 310 309 309 310 309 310 311 311 314 315 314 316 314 314 314 314 312 310 311 314 315 316 316 316 316 316 317 316 316 316 314 313 313 312 312 312 312 314 313 310 309 310 311 312 311 311 312 312 311 314 317 317 316 315 315 314 315 315 316 318 318 319 318 318 320 318 330 337 337 339 338 338 339
303 303 303 303 303 303 304 304 304 303 301 297 297 302 310 312 311 311 312 313 314 315 315 316 314 314 315 314 313 315 315 314 312 311 312 314 314 314 316 316 316 316 316 316 316 314 313 313 312 311 311 312 314 314 313 313 314 314 314 313 312 311 312 314 316 316 317 316 315 315 314 315 316 316 317 317 318 318 318 320 317 328 337 335 336 337 335 335
303 303 303 303 303 303 303 303 303 302 300 300 301 306 313 317 318 317 315 315 316 316 315 316 314 311 312 313 313 315 317 316 314 311 311 312 312 313 314 315 316 317 317 317 316 315 314 313 312 311 312 313 314 315 315 315 315 316 316 314 314 312 312 316 317 316 317 316 314 317 315 315 316 315 317 316 318 318 317 320 317 324 337 337 335 336 335 335
303 302 303 303 303 303 303 304 303 301 300 301 303 308 314 317 316 316 315 315 317 317 314 314 314 313 313 313 313 316 316 315 315 313 313 313 312 312 312 314 316 317 316 317 316 316 314 312 312 313 313 314 314 316 316 316 316 316 315 314 314 313 313 317 318 316 317 316 315 317 316 315 316 315 317 317 317 317 316 319 318 318 329 335 335 335 335 335
302 302 302 302 303 303 303 303 302 300 298 301 305 309 312 313 311 311 311 311 313 316 316 315 313 313 314 314 314 315 314 314 314 314 316 314 312 312 312 313 315 317 317 316 317 316 314 313 313 313 314 314 314 315 316 316 315 315 315 314 313 314 314 315 317 317 317 316 315 317 315 315 317 316 317 317 317 318 317 318 319 318 319 327 334 336 336 335
302 302 302 302 303 302 303 302 301 300 299 302 308 309 311 312 310 310 311 310 311 312 313 315 313 312 312 312 313 313 313 313 313 314 316 314 312 312 313 314 315 316 316 315 316 316 314 314 314 314 314 315 315 314 316 317 317 316 316 314 313 315 313 311 314 318 317 317 317 316 316 315 317 317 317 318 317 317 318 317 318 319 319 321 330 335 337 336
302 302 302 302 302 302 303 301 299 300 300 302 306 309 310 309 309 310 311 312 312 312 312 314 313 312 311 311 312 312 312 312 312 314 315 314 312 312 313 314 314 315 316 316 316 316 316 316 316 314 313 314 315 315 316 317 317 317 318 315 313 315 313 311 314 317 317 317 318 317 314 314 316 317 316 317 317 317 317 317 317 318 319 319 325 334 336 336
302 302 302 302 302 303 301 300 302 305 306 307 308 309 309 308 310 311 312 315 315 314 313 313 312 311 312 312 312 312 311 311 311 314 317 314 313 313 313 315 314 314 315 316 316 315 316 318 317 315 314 314 315 315 316 317 315 315 317 316 314 314 315 315 316 316 313 313 316 316 311 311 315 315 317 317 316 317 317 317 317 317 318 318 319 327 334 336
301 301 302 302 302 301 300 305 310 309 310 311 310 309 308 309 311 311 314 317 316 314 313 312 311 312 313 313 313 311 310 310 310 313 317 315 315 314 313 314 314 314 315 316 316 316 316 317 316 316 315 315 315 316 316 317 313 311 314 316 315 315 314 314 315 314 310 310 315 317 311 310 313 314 317 318 317 318 317 317 317 316 317 317 318 321 328 334
301 302 301 301 302 301 303 309 309 307 308 309 310 309 308 311 312 311 316 317 313 314 314 311 311 312 313 313 313 312 311 312 311 311 315 316 315 315 314 314 314 314 314 315 314 315 317 317 316 316 316 316 315 315 315 315 313 311 315 316 315 315 314 314 313 312 312 312 314 315 312 311 310 312 318 318 317 317 317 319 321 319 317 318 323 325 324 328
301 301 301 301 301 301 303 305 306 307 309 310 310 308 308 312 312 313 320 320 314 314 315 311 312 312 312 314 312 312 313 313 311 310 313 315 314 314 315 314 315 314 314 314 311 314 317 316 316 317 316 316 315 315 315 314 314 313 315 315 315 315 315 315 314 312 313 313 311 311 312 311 308 312 318 316 316 317 319 326 329 327 325 326 328 329 327 326
301 301 301 301 300 300 302 303 305 306 307 309 308 307 309 311 312 315 320 321 316 313 315 312 312 312 313 314 313 313 313 313 312 310 311 314 314 314 315 315 315 315 314 313 312 315 317 316 316 317 316 316 315 315 315 314 314 315 316 315 314 315 315 316 315 311 311 312 310 310 311 310 308 310 313 315 320 325 328 330 331 329 328 329 331 331 329 326
301 301 301 301 300 302 305 306 306 304 304 307 307 308 311 311 314 318 317 317 314 313 314 313 312 312 313 313 313 313 314 314 313 311 310 313 314 313 314 315 315 315 314 314 313 315 317 317 317 316 316 316 315 315 315 314 315 315 316 314 314 315 315 316 314 311 311 311 311 310 310 310 309 310 313 317 324 329 331 330 331 329 327 329 330 330 329 328
301 301 301 301 301 304 306 308 308 307 307 308 308 310 312 313 317 319 316 313 312 312 312 312 313 313 312 312 313 313 313 314 313 312 311 312 313 313 314 315 314 314 315 314 314 314 315 316 316 316 316 317 315 315 315 315 315 315 315 314 313 313 313 313 311 311 312 311 310 309 310 310 308 310 317 324 327 330 330 329 329 329 328 328 330 330 330 331
301 301 301 301 302 302 304 307 309 310 309 310 310 311 313 315 315 316 317 311 311 312 312 312 313 313 313 312 313 313 313 314 313 312 311 311 312 312 312 313 314 313 313 313 313 314 315 315 316 316 316 316 316 314 314 314 315 315 314 312 311 311 311 311 310 311 311 311 310 310 311 310 311 317 322 325 328 329 331 331 331 331 331 333 333 332 332 333
300 301 301 301 302 302 302 303 307 309 309 310 311 311 315 317 314 313 315 311 310 312 311 313 313 312 313 312 313 314 313 313 313 312 312 311 311 311 311 312 314 314 313 313 313 312 313 314 315 315 316 316 315 313 312 313 313 314 312 311 311 311 312 312 311 311 311 311 312 313 313 310 314 324 327 324 326 328 330 331 332 333 334 335 334 333 332 332
300 300 301 301 302 303 302 303 307 310 311 311 312 313 316 318 315 312 312 311 311 312 311 312 312 311 312 311 313 314 313 313 313 313 312 311 311 311 310 311 312 314 314 313 313 313 312 314 315 315 315 315 315 314 314 314 314 315 314 313 312 310 311 311 310 312 314 314 315 315 314 312 316 324 327 326 327 327 329 330 331 332 334 336 336 334 333 332
300 301 302 302 303 302 302 305 309 311 313 313 312 314 317 317 315 311 310 311 310 311 311 311 311 310 310 311 312 314 314 314 314 313 313 312 311 311 311 311 311 313 313 312 313 313 312 313 315 316 316 316 314 314 315 315 313 315 316 313 311 311 311 310 311 313 314 315 315 314 314 318 322 326 327 328 330 329 328 328 330 333 333 335 336 335 334 335
301 304 307 308 308 305 304 307 310 311 314 314 314 315 315 314 313 310 310 310 310 310 310 310 309 309 308 309 311 313 314 314 315 314 313 312 311 310 312 312 311 312 313 313 313 314 312 313 316 316 316 316 316 315 315 314 313 314 314 311 312 314 313 311 311 313 313 314 315 314 315 320 326 328 328 329 330 330 329 329 331 333 332 333 334 333 332 334
304 308 312 314 313 311 310 309 311 312 313 315 316 316 313 311 310 309 309 309 309 309 308 308 308 308 308 309 310 312 313 314 315 314 312 313 312 311 312 313 312 311 312 313 314 315 314 314 316 316 316 316 316 316 315 315 314 313 312 312 314 315 313 312 312 312 314 315 315 313 314 320 327 330 329 329 330 331 331 330 331 332 331 331 331 331 331 333
305 309 313 315 314 314 312 310 311 311 312 315 317 315 312 310 309 309 309 308 309 309 307 307 308 309 308 308 310 311 312 314 314 314 313 312 312 314 314 314 314 313 313 314 313 315 315 313 314 316 316 317 317 316 315 315 315 313 314 315 316 314 311 311 312 313 315 317 316 313 313 321 329 329 328 329 330 330 331 331 331 331 330 330 330 330 330 331
305 310 314 315 313 312 312 312 312 310 310 313 314 313 312 310 309 308 308 308 308 307 307 307 308 309 309 309 311 312 313 313 314 314 314 314 315 318 316 315 316 314 313 314 314 315 315 314 314 315 316 316 316 315 313 314 315 314 314 315 316 314 313 313 312 313 313 315 316 313 314 324 329 328 329 330 330 330 331 332 330 328 329 330 330 330 330 331
308 313 316 313 311 312 312 312 311 310 310 311 311 310 310 308 308 308 307 308 307 307 307 308 309 310 310 310 311 313 313 313 315 315 315 317 317 318 317 316 316 318 317 314 313 315 316 316 316 316 316 315 314 314 314 313 314 313 312 312 313 314 314 315 314 313 313 315 317 316 318 327 329 328 329 330 329 329 329 329 328 328 329 330 329 330 330 331
311 314 316 314 311 311 311 311 311 310 309 310 310 309 309 309 308 308 308 308 307 307 308 309 310 311 311 311 311 312 312 313 313 313 317 319 317 317 320 319 318 320 322 319 315 315 316 317 317 316 315 314 314 315 316 315 314 315 313 311 312 313 313 314 314 313 312 315 317 316 321 329 330 327 329 329 329 328 327 327 328 328 328 327 327 327 327 328
313 315 316 315 313 310 310 311 312 311 310 310 310 309 309 309 309 310 311 308 306 308 309 310 310 311 312 312 312 312 312 312 312 313 318 321 321 319 320 319 318 320 321 320 319 318 318 318 318 317 315 315 316 316 316 317 317 315 313 313 314 313 311 311 314 316 314 315 317 316 320 329 330 327 328 327 327 328 327 328 329 327 326 325 325 325 325 325
313 315 316 315 314 311 310 311 311 311 312 311 311 310 309 309 308 309 310 309 306 307 310 310 309 310 311 311 312 312 313 313 312 314 318 321 322 320 319 319 319 318 320 321 321 320 319 317 317 318 317 316 317 318 317 317 318 317 319 321 322 320 316 314 316 319 316 316 319 319 321 328 328 327 327 326 327 328 327 327 327 325 325 324 323 323 323 323
314 316 316 315 315 314 315 314 313 312 312 312 312 311 310 309 309 309 309 309 308 308 310 310 310 310 310 311 312 312 313 313 313 314 317 319 320 319 319 318 318 320 321 322 322 321 319 319 318 318 319 319 319 319 318 317 319 319 322 324 324 325 326 323 320 321 319 315 317 320 324 328 328 327 327 327 327 326 325 325 324 324 324 322 322 322 322 322
314 314 315 315 315 316 317 316 315 313 312 313 313 312 311 310 309 310 311 310 310 310 311 311 311 310 310 310 311 311 312 313 313 314 317 318 319 318 319 318 320 321 322 323 324 322 321 321 320 320 322 322 323 322 322 321 321 321 323 324 324 325 327 327 324 325 324 320 317 322 326 328 328 328 328 327 325 324 323 322 322 322 322 322 321 321 320 320
315 314 314 315 315 315 315 316 316 314 311 313 313 312 312 311 310 310 310 310 310 310 311 311 311 311 310 311 312 311 310 311 312 313 316 318 319 318 318 319 319 320 322 324 323 321 322 323 322 323 324 324 324 323 323 322 322 323 324 325 325 325 326 326 326 326 326 325 323 325 327 328 328 328 327 325 323 321 320 319 319 319 320 320 321 319 319 318
315 314 314 315 314 314 314 314 314 313 311 312 311 311 312 311 311 310 308 309 311 309 309 310 310 311 310 310 312 312 312 311 311 311 314 316 318 318 318 317 317 319 321 322 320 321 323 323 324 325 325 323 323 322 322 322 321 322 324 325 326 325 325 325 326 327 326 325 326 327 328 329 328 327 325 322 320 319 318 317 317 316 316 318 318 317 316 315
314 314 315 315 314 314 313 313 312 312 312 311 310 312 312 311 311 311 308 308 310 309 310 311 310 309 310 310 311 313 312 312 312 312 313 315 317 319 318 317 316 317 320 320 319 321 323 323 324 325 323 321 321 322 322 322 321 322 322 324 325 325 325 325 326 327 327 326 327 327 327 327 325 323 321 319 318 316 315 314 313 313 313 314 315 314 313 313
314 314 316 316 314 313 312 312 312 311 312 311 310 311 312 311 311 311 309 310 310 309 310 311 310 309 309 309 311 312 312 314 315 315 315 316 317 318 318 318 317 316 317 320 320 321 321 321 323 323 321 321 321 322 322 322 322 323 321 321 323 324 324 324 324 325 326 327 326 325 324 323 321 319 318 316 315 313 312 311 310 310 310 311 311 311 311 310
315 314 314 314 313 312 312 311 311 311 311 310 310 310 311 311 311 310 310 311 311 311 310 310 310 310 310 309 310 311 313 315 317 317 316 315 315 315 316 317 317 316 316 319 321 320 319 320 322 322 320 320 321 322 321 322 322 322 320 319 320 322 322 322 321 322 324 325 325 324 324 321 318 316 314 313 311 311 310 309 309 308 308 309 309 309 309 308
314 314 315 314 312 311 310 310 311 310 309 308 310 310 310 310 310 310 310 309 311 312 310 310 311 310 311 310 311 312 312 313 315 315 314 314 314 313 314 315 316 315 316 318 319 318 318 319 321 321 319 319 321 322 322 322 321 320 318 318 319 320 321 320 319 318 320 322 323 323 323 321 318 314 312 310 309 308 307 307 308 307 307 307 307 307 307 306
314 314 314 313 310 308 309 310 310 309 308 308 310 310 310 310 309 310 309 307 309 310 310 310 311 310 311 311 311 311 312 311 312 312 311 312 312 311 311 312 313 313 315 317 318 318 317 316 317 318 317 319 322 323 323 322 322 320 317 316 317 319 319 317 316 316 316 318 319 320 319 317 315 313 311 308 307 307 306 306 306 306 306 306 306 306 306 305
Wind_Speed
10 10 10 9 9 9 9 10 11 12 13 13 13 14 13 14 14 14 13 13 14 15 14 14 14 15 15 16 18 18 20 20 19 15 15 16 12 11 8 7 9 11 12 12 11 12 13 13 13 13 11 9 7 7 9 9 7 6 5 6 7 6 8 6 6 6 4 9 8 6 6 3 3 4 4 4 8 8 4 4 10 14 6 7 8 15 21 21
10 10 10 10 9 9 10 10 11 12 13 13 14 14 14 14 15 14 14 14 14 14 14 13 13 14 15 16 18 17 20 20 19 20 21 20 15 15 14 13 12 10 13 14 14 14 12 10 12 12 9 7 7 8 9 8 7 7 6 6 8 8 6 5 7 5 5 7 5 3 2 1 3 5 3 6 8 5 6 8 11 15 10 9 11 16 20 20
10 11 11 11 10 10 10 10 11 12 13 14 14 14 15 15 15 15 14 14 14 14 14 13 13 14 15 16 18 16 18 20 16 16 18 19 15 14 14 14 14 13 16 15 14 14 12 10 11 11 9 7 7 9 9 7 7 7 7 6 9 9 5 7 6 5 6 5 4 4 3 3 5 6 2 6 9 7 9 9 9 15 13 11 10 13 17 18
11 11 11 11 11 10 10 10 11 12 13 14 14 15 15 15 15 15 15 14 15 14 14 13 12 13 14 16 16 14 15 16 9 2 9 16 14 12 12 11 12 15 17 16 13 12 13 11 10 10 9 8 7 9 8 6 6 7 7 8 11 8 6 6 4 5 6 7 6 6 5 5 7 5 5 7 9 7 8 7 8 19 15 12 11 11 14 14
11 11 12 12 12 12 10 10 11 12 13 14 15 15 15 15 15 15 15 15 15 15 14 13 13 13 14 16 14 13 12 7 2 8 14 14 10 8 8 9 12 16 17 16 14 13 14 12 10 9 8 8 8 8 8 8 7 6 8 11 14 11 9 6 4 4 5 7 8 9 8 8 7 5 6 10 10 7 6 7 14 20 14 13 13 11 11 11
11 11 12 12 12 12 11 10 11 12 14 14 15 15 15 15 15 16 16 15 15 14 14 14 13 13 14 15 13 10 8 3 4 9 12 8 6 5 6 10 14 16 15 14 14 13 14 12 10 9 7 8 10 9 8 10 10 7 8 11 13 12 10 7 3 2 2 5 9 9 8 8 7 7 8 10 10 10 8 5 17 19 15 14 13 11 11 11
11 11 12 12 12 13 12 11 11 12 14 14 15 16 15 15 15 16 16 16 15 14 14 13 13 13 14 15 11 8 9 9 4 8 8 5 4 5 5 12 16 16 13 13 13 12 12 12 11 9 8 8 10 11 10 11 11 9 9 10 12 11 9 10 7 4 3 6 8 8 9 8 8 8 9 10 9 11 10 4 17 19 15 14 14 12 9 6
11 11 12 13 12 13 13 12 12 13 14 15 15 16 16 16 16 16 16 16 16 15 14 13 12 12 12 13 9 8 10 10 5 8 4 5 4 3 9 14 17 16 12 14 13 11 11 12 12 10 9 10 9 10 10 10 11 11 11 11 12 10 8 8 8 7 7 8 8 8 10 10 11 10 11 12 7 11 12 2 12 19 16 14 15 11 9 11
11 12 12 13 13 13 13 13 13 13 14 15 15 16 16 16 16 16 16 17 16 16 15 13 12 10 9 9 8 7 4 5 9 5 3 6 5 8 13 13 17 15 12 14 13 12 10 9 12 11 10 10 9 9 9 8 8 8 12 12 11 12 10 8 8 9 9 7 7 10 11 11 12 10 11 13 10 16 11 1 4 16 18 13 12 12 13 9
12 12 12 13 13 13 14 14 13 14 14 15 15 16 17 17 17 17 17 17 17 16 15 13 11 10 9 9 9 6 1 7 8 5 7 10 10 14 14 13 17 16 12 13 14 13 11 10 11 10 10 10 10 9 7 9 6 4 8 11 11 12 11 10 10 10 9 8 9 11 12 11 12 10 9 10 13 18 8 2 9 9 13 11 14 10 8 9
13 13 13 13 13 14 14 14 14 14 14 15 16 17 17 17 17 17 17 18 17 17 15 13 9 8 10 9 8 5 1 3 6 8 10 12 14 16 14 14 17 16 13 12 12 13 13 12 8 6 6 6 9 9 8 11 10 7 8 9 10 12 11 12 12 10 8 8 10 11 12 12 12 11 10 11 15 14 7 7 10 7 15 15 13 5 2 6
14 14 14 13 14 14 14 14 14 14 15 15 16 17 17 17 17 17 18 18 17 15 13 11 6 5 9 8 10 12 5 2 5 7 10 13 14 14 13 13 15 15 13 10 10 11 13 11 8 8 5 3 7 7 6 10 12 11 10 9 11 12 12 14 13 13 10 8 10 10 10 11 12 13 12 13 18 12 8 10 7 14 17 13 11 7 5 6
14 14 14 14 14 14 14 15 15 15 15 15 17 17 17 18 17 17 18 17 15 13 12 8 3 5 8 6 10 15 10 5 5 7 10 12 13 13 12 12 13 14 12 9 8 9 12 8 7 11 8 6 7 4 5 7 9 10 10 8 9 10 11 14 15 14 12 10 9 6 6 8 11 15 15 14 18 12 8 9 7 14 15 12 12 10 9 8
14 15 14 14 15 15 15 15 15 16 15 16 17 18 18 18 18 18 17 13 10 9 10 6 4 5 6 8 12 9 7 5 6 9 11 14 14 13 12 12 12 11 9 8 6 4 7 7 8 10 9 10 9 6 6 7 7 8 9 8 7 7 9 14 15 14 12 11 8 4 4 8 12 15 16 16 18 14 10 9 9 11 14 11 12 12 11 10
14 15 15 15 15 15 15 15 16 16 16 17 17 18 19 18 18 16 11 8 7 7 7 5 7 6 5 10 13 8 10 7 9 12 12 15 15 12 12 12 12 10 8 8 7 4 6 7 8 8 8 11 10 8 7 7 6 7 7 7 7 7 9 11 12 14 10 8 8 6 6 8 13 16 14 19 18 13 9 8 10 10 15 12 12 11 9 9
15 15 15 15 15 16 16 16 17 17 17 17 17 19 18 16 14 10 6 4 4 4 4 5 11 11 6 6 4 8 12 11 13 13 13 16 14 12 12 11 11 10 8 9 7 5 7 8 8 8 9 10 9 8 7 6 7 7 7 7 8 8 8 5 10 14 12 8 9 9 9 7 11 14 8 11 13 9 8 8 11 8 16 12 11 10 8 8
15 15 15 16 16 16 17 16 17 18 18 17 18 18 14 12 10 6 4 2 2 5 9 7 9 11 7 6 3 8 13 13 14 15 15 16 14 13 14 11 10 11 9 10 8 7 8 7 6 7 8 8 8 8 7 7 7 6 7 7 9 10 9 5 10 14 13 9 7 10 9 9 13 13 2 9 9 6 8 9 11 6 13 11 10 11 9 8
15 16 16 17 17 17 17 17 17 18 18 18 18 16 12 12 9 5 4 3 3 6 11 11 9 7 8 12 11 10 14 14 14 17 16 15 15 14 13 11 9 10 9 9 9 9 8 7 7 7 7 8 9 8 7 9 8 8 9 7 8 10 11 7 8 12 11 8 7 9 10 9 15 13 1 7 9 9 10 10 11 8 13 11 11 11 10 10
15 16 16 17 17 17 18 17 17 18 18 18 16 13 11 8 5 6 8 8 7 5 6 6 10 5 3 9 13 6 11 13 13 16 17 16 15 13 11 11 10 11 9 7 9 10 7 6 7 7 7 8 10 10 10 12 13 12 9 6 8 8 9 10 5 10 8 6 7 8 9 9 12 13 8 6 8 11 11 9 10 8 13 11 9 10 9 10
15 16 17 17 17 18 18 18 18 18 17 19 18 13 7 4 3 5 8 11 11 10 8 6 16 11 5 7 11 6 11 11 10 13 17 17 15 13 11 10 10 10 9 8 9 10 8 7 8 8 9 11 13 14 14 15 16 15 10 7 9 8 9 11 8 12 9 5 5 7 9 10 11 12 12 11 9 10 12 11 9 8 12 12 11 12 11 11
16 16 17 18 18 18 18 18 18 17 16 18 16 9 5 4 4 1 3 10 16 19 18 11 14 16 11 6 8 11 9 8 9 11 16 17 15 13 10 11 11 8 10 12 9 8 8 8 9 11 13 14 14 14 14 16 18 14 9 7 10 8 6 9 6 9 9 5 4 7 11 12 12 12 12 12 12 13 11 9 9 11 10 12 14 13 13 10
16 16 17 18 18 18 18 19 18 17 16 15 11 10 8 7 6 4 4 7 12 18 20 17 15 15 14 10 4 8 8 9 11 12 15 16 14 12 10 12 11 9 11 13 8 8 8 8 12 14 14 13 13 13 12 14 16 11 6 7 9 7 5 9 8 5 6 4 3 6 10 11 12 13 13 12 11 11 13 10 9 11 12 10 14 13 11 11
16 16 18 18 18 19 19 19 18 17 16 13 11 12 10 8 7 7 7 6 10 14 17 17 16 13 13 12 8 8 9 9 11 12 16 15 13 12 11 12 11 11 11 11 10 8 7 10 16 16 13 13 13 11 8 8 10 7 5 7 8 9 8 7 8 8 5 1 1 6 10 9 11 11 10 10 11 11 13 16 11 11 11 10 12 15 13 14
16 16 17 18 19 18 19 21 19 16 16 15 16 17 11 8 7 9 6 6 8 9 13 16 15 13 13 12 12 13 11 10 11 12 18 15 12 11 11 12 12 11 10 13 14 11 10 14 16 15 15 15 12 8 7 6 6 6 8 10 9 11 11 10 10 8 5 1 3 6 9 7 9 12 12 11 12 13 14 16 15 12 12 11 11 14 15 15
16 16 17 18 18 18 19 20 15 12 11 13 18 18 10 5 5 7 5 5 6 6 10 12 10 9 11 11 11 13 12 10 12 11 18 16 14 11 10 9 9 10 12 15 15 11 13 14 8 10 12 11 9 7 9 8 6 8 10 12 13 14 14 14 13 9 6 6 8 9 8 6 9 14 15 13 13 16 15 15 16 13 12 11 10 10 13 15
16 16 17 17 17 19 17 10 8 8 8 11 9 6 5 3 4 6 4 4 5 5 8 9 8 7 9 10 9 10 10 11 13 12 17 18 15 11 9 7 6 10 13 13 11 7 10 14 8 7 7 5 7 8 10 10 7 7 9 12 15 16 15 16 14 10 7 7 7 9 8 5 7 9 10 11 12 15 14 15 15 13 11 12 10 8 10 14
15 15 17 17 16 16 11 7 10 11 6 5 1 1 2 3 4 5 3 4 4 7 10 7 7 8 10 10 11 10 5 6 12 14 15 17 15 12 10 9 8 9 10 8 8 6 9 15 11 10 9 7 8 9 9 11 9 7 9 12 14 15 16 16 13 9 8 8 9 11 10 7 7 7 10 13 13 13 11 7 6 8 9 8 2 3 3 3
16 16 17 17 16 12 11 13 16 11 4 5 2 1 2 3 4 4 3 4 3 6 8 6 5 7 10 10 14 11 2 3 11 13 15 18 16 11 10 12 10 10 12 9 8 7 9 13 10 10 9 7 8 10 11 12 10 8 11 12 10 9 11 11 8 8 8 8 9 10 10 9 8 7 9 13 12 12 6 4 8 7 7 6 8 11 11 11
16 16 16 17 16 12 12 14 15 13 9 7 4 3 4 5 4 3 4 3 4 5 4 5 5 7 9 9 14 13 6 5 7 10 15 17 15 12 9 12 13 12 14 11 9 8 8 9 10 9 8 8 9 11 12 12 10 9 12 12 9 5 6 8 8 8 8 8 9 10 10 8 7 6 7 9 5 5 4 8 10 9 11 11 11 11 10 13
16 16 15 17 15 10 8 14 17 13 10 8 6 5 5 4 3 4 4 2 4 6 5 5 6 10 11 10 11 12 10 8 5 9 14 12 13 13 9 9 13 12 12 12 11 12 7 7 9 9 7 8 11 10 11 11 8 8 9 9 7 5 6 7 7 7 6 8 10 12 12 10 8 7 5 3 3 8 6 6 7 8 10 10 11 11 9 11
16 16 15 15 14 11 10 9 10 7 6 6 6 5 5 4 4 5 4 2 3 7 8 7 9 11 14 12 10 11 12 10 6 9 11 9 11 12 8 8 8 8 9 9 11 13 12 8 8 6 3 5 10 10 10 9 8 7 6 5 5 5 6 7 7 7 7 8 10 13 15 13 9 6 1 6 10 11 8 6 8 8 8 9 9 9 9 10
17 17 16 16 16 15 15 9 3 7 4 4 4 4 5 4 5 6 3 1 3 6 7 9 10 11 14 14 11 13 12 9 9 10 10 9 9 10 10 8 6 7 8 8 9 11 11 11 10 7 6 9 11 8 8 10 9 8 7 6 6 5 6 7 6 6 7 7 10 12 12 10 5 3 5 10 11 11 10 8 10 10 9 10 10 9 8 7
19 19 19 18 17 19 22 16 10 11 7 5 5 5 4 4 6 7 6 3 4 4 5 9 12 10 13 12 11 13 12 10 12 12 11 11 9 10 14 14 11 9 7 7 9 9 8 11 13 12 9 10 12 9 7 8 9 8 8 7 7 6 6 7 6 6 7 6 8 11 10 8 3 5 9 10 10 9 8 7 8 8 8 8 8 7 6 4
21 22 22 20 19 22 22 16 13 11 7 5 5 4 6 6 6 8 8 5 5 4 3 5 7 7 9 9 9 11 10 9 13 13 11 11 9 9 12 15 16 12 7 7 8 7 9 9 10 11 8 11 13 12 10 8 7 8 8 8 7 7 6 6 5 5 6 4 7 8 6 5 3 2 5 9 9 6 7 7 6 5 6 6 6 6 5 5
23 20 19 19 20 21 19 16 13 9 7 5 5 5 6 6 5 7 6 2 4 4 5 4 3 6 8 8 10 11 8 8 12 13 10 10 9 9 10 13 16 14 9 7 5 6 10 8 8 12 10 11 13 12 12 11 8 8 9 9 8 7 6 5 4 5 4 3 5 5 3 3 3 4 5 7 8 7 6 6 6 5 6 7 7 7 8 8
21 15 12 15 16 14 14 16 13 9 7 5 6 6 6 7 5 1 3 4 3 1 3 5 6 8 7 7 10 10 8 5 9 10 9 10 11 11 11 10 14 16 12 7 4 5 8 7 9 12 10 11 13 12 12 12 7 5 7 9 8 9 8 5 5 5 4 4 4 4 3 1 5 3 6 6 7 7 5 4 5 4 6 8 7 6 6 6
17 13 10 14 16 12 14 15 12 10 7 5 6 6 6 8 4 4 5 5 2 1 2 3 7 7 7 7 7 9 9 5 7 8 7 9 10 12 14 12 14 18 15 11 6 5 6 6 8 12 11 12 12 12 13 13 9 5 5 7 8 9 8 5 4 5 5 6 5 6 6 3 4 1 5 6 6 6 4 4 4 4 7 7 4 5 5 4
14 12 11 12 12 12 15 15 13 10 6 5 7 8 8 6 0 4 5 6 3 1 4 6 4 6 8 7 7 10 9 6 6 7 6 8 7 7 8 8 11 17 18 14 7 4 4 5 8 12 11 11 11 11 11 12 13 10 7 6 5 6 6 5 5 5 6 6 4 7 8 2 5 1 1 4 5 6 6 4 5 8 8 4 1 2 4 5
12 9 6 8 10 12 14 15 12 8 5 6 6 6 8 6 1 3 4 4 5 3 5 7 3 4 7 5 3 7 8 6 7 6 7 5 2 4 5 2 5 12 16 15 8 3 3 4 6 9 10 9 8 8 7 8 11 12 10 8 5 4 4 3 3 4 6 6 4 7 6 2 4 2 3 1 2 4 6 5 8 10 7 5 4 4 3 4
9 5 2 9 11 12 15 14 9 6 6 7 6 5 7 5 2 3 3 3 5 4 5 6 4 4 5 6 5 3 5 5 6 7 6 1 2 4 6 5 3 6 7 11 11 6 6 4 4 6 8 8 7 7 8 9 9 9 9 8 7 5 4 4 4 4 5 4 4 6 3 2 2 3 4 2 2 3 3 6 8 5 5 8 9 9 8 9
7 3 3 9 11 14 15 10 7 6 6 6 9 8 4 1 2 4 2 3 5 4 5 6 5 3 3 5 5 0 2 5 5 6 4 1 2 1 4 8 5 7 10 9 8 3 2 4 4 5 6 8 7 8 9 9 7 7 7 8 8 7 5 6 6 6 6 4 4 5 1 3 2 5 6 5 4 5 5 6 4 3 7 10 10 12 12 11
5 3 5 11 13 14 11 6 5 6 6 6 6 4 3 2 3 1 2 4 5 5 4 4 6 4 5 6 4 3 4 4 5 4 2 4 1 1 4 10 8 3 5 8 5 4 4 0 4 5 6 7 6 4 5 9 11 10 9 7 8 8 7 8 6 4 5 3 3 2 2 4 3 6 8 6 6 5 5 6 5 6 8 10 10 11 12 11
4 2 5 11 14 12 8 5 5 6 6 3 3 2 4 2 5 1 2 6 5 4 3 3 4 4 4 4 4 5 4 4 4 1 5 6 3 3 4 7 10 7 3 4 6 6 2 2 4 5 5 7 8 6 5 6 10 8 5 5 6 5 7 7 4 1 2 2 1 1 1 3 4 6 8 4 1 4 6 7 8 9 8 10 11 10 10 11
1 2 3 10 13 9 5 4 5 6 6 3 3 2 0 2 4 2 3 4 4 2 2 4 3 3 4 2 2 5 1 2 5 1 6 4 2 3 4 2 6 7 2 1 3 3 2 3 4 6 5 5 6 6 6 4 5 4 4 8 11 13 15 11 4 3 2 4 3 2 0 2 3 5 6 4 3 6 8 9 10 10 8 8 9 8 9 10
1 1 2 7 11 7 3 3 4 4 5 4 3 4 3 2 2 3 5 2 1 1 1 4 3 1 3 3 3 6 4 3 4 1 6 4 3 3 4 1 1 3 1 2 2 2 2 1 2 5 5 4 4 3 3 4 3 4 7 10 13 16 16 10 3 3 3 5 2 2 2 3 3 5 7 6 6 8 10 11 11 10 8 7 7 7 8 9
1 1 2 5 7 6 4 5 8 5 4 4 3 4 6 4 3 2 4 3 1 1 2 3 3 3 3 5 4 5 7 6 5 2 3 5 3 3 3 2 4 3 1 1 0 1 1 1 2 3 3 2 1 2 5 8 5 5 8 11 12 13 14 9 3 3 3 5 3 3 4 6 6 6 7 7 7 8 10 11 10 9 9 8 8 9 10 10
1 1 4 5 5 5 5 7 8 4 3 5 3 3 6 5 3 4 3 3 1 3 4 4 5 4 3 4 4 4 7 6 5 5 3 6 4 1 4 2 3 3 2 2 2 2 1 1 3 5 4 3 1 2 4 10 7 4 8 9 11 12 13 11 6 3 2 4 2 4 5 7 8 7 8 8 8 8 10 10 10 10 10 10 10 11 12 13
2 1 3 4 3 5 5 6 5 2 3 5 2 2 3 4 2 3 2 4 4 2 4 3 4 7 5 4 3 3 6 6 4 4 1 3 4 2 2 4 2 3 2 2 1 0 1 1 1 2 4 3 1 0 2 6 8 4 8 8 9 12 12 10 7 7 4 1 2 6 8 8 7 8 9 9 8 9 10 10 10 11 12 12 13 13 13 14
3 1 3 7 4 3 3 2 4 4 3 2 2 1 2 3 2 3 1 3 2 2 4 3 3 9 7 4 3 2 3 3 3 4 4 4 1 2 1 3 3 5 3 1 3 1 2 1 2 2 5 2 1 1 4 3 8 4 9 10 10 12 11 10 9 10 9 8 7 9 11 9 6 7 9 9 9 10 10 10 11 12 13 13 13 13 14 14
2 1 2 5 2 3 3 3 3 4 3 1 2 3 2 3 3 3 3 1 0 1 4 2 3 7 5 1 3 2 1 2 3 3 3 2 3 0 1 2 2 4 4 2 2 1 1 1 2 2 5 1 2 1 3 5 3 5 13 15 12 12 11 10 10 9 8 7 6 8 9 7 5 6 9 10 10 10 11 12 12 12 12 13 13 13 14 14
5 6 7 4 2 3 3 4 3 3 4 2 2 3 2 4 4 1 2 3 2 2 3 2 2 5 4 2 4 2 3 3 1 1 2 2 2 1 0 2 4 2 1 1 1 0 1 0 2 1 5 1 2 2 4 9 7 9 15 16 13 11 10 9 9 9 8 7 4 5 6 4 4 6 9 10 11 12 13 12 11 10 11 12 12 13 13 14
8 9 10 4 2 2 3 4 4 4 3 2 3 4 1 2 4 4 2 2 2 3 1 2 3 4 4 2 2 3 4 2 3 4 5 4 4 4 2 2 4 3 2 1 0 1 1 2 1 2 3 1 3 3 4 6 5 4 9 11 10 10 9 10 11 11 10 7 4 4 5 5 6 8 9 10 12 12 12 11 9 9 10 11 12 12 13 13
Wind_Direction
329 329 329 332 334 335 334 330 327 324 322 321 320 319 318 317 317 316 316 315 313 312 312 313 312 312 316 319 318 321 329 321 309 293 254 248 247 246 255 234 245 245 210 196 203 200 200 215 221 219 223 225 221 235 236 222 227 239 231 242 249 243 243 267 14 6 359 63 62 45 40 331 331 2 349 329 244 228 241 220 101 85 61 62 108 136 145 152
328 327 328 329 330 332 334 331 327 323 321 321 318 318 317 315 315 314 314 312 311 312 313 313 314 318 322 321 319 328 331 314 294 281 261 251 245 246 254 248 251 234 196 198 209 203 202 209 210 211 217 225 211 219 232 206 205 236 234 235 241 246 266 326 14 354 2 42 32 23 45 346 333 336 337 311 282 243 249 219 131 97 85 83 110 139 148 154
325 325 325 325 326 329 333 330 326 323 321 319 317 316 315 314 313 312 311 311 311 313 312 314 316 318 323 321 322 335 328 308 289 274 253 236 228 232 243 246 243 223 197 202 209 205 213 211 202 210 216 227 219 212 218 192 191 226 235 242 238 247 314 350 348 347 357 4 342 331 11 10 297 305 328 305 306 288 275 247 164 116 106 106 123 150 153 159
324 322 321 322 323 325 328 329 326 323 320 317 316 314 312 312 310 309 308 308 308 309 310 315 318 318 322 319 322 336 321 298 288 239 184 194 208 220 235 242 229 212 202 214 227 216 223 223 205 212 223 230 222 214 218 193 191 214 222 245 249 264 324 330 329 1 351 334 324 311 311 300 281 319 339 292 290 265 283 302 127 121 125 138 152 171 168 172
323 319 319 319 320 322 325 328 326 323 320 317 314 313 311 309 307 307 305 305 305 305 309 313 315 319 317 316 323 327 307 286 81 118 145 170 196 220 237 230 208 201 203 224 245 231 227 232 213 213 231 242 227 214 223 214 216 230 230 248 261 282 309 315 356 9 338 320 302 287 279 284 296 319 293 276 281 277 320 21 110 126 138 153 165 178 179 183
320 318 316 316 318 320 323 325 326 322 319 316 314 312 310 308 306 305 303 303 302 301 305 308 313 317 314 315 316 302 273 272 62 131 151 171 206 247 245 210 193 192 203 226 245 233 224 229 221 216 226 241 239 226 220 221 226 243 243 248 261 272 281 285 326 352 329 305 286 285 282 290 305 295 278 270 270 282 314 62 120 135 151 161 165 175 182 188
317 316 313 314 315 317 320 322 324 322 319 316 314 311 309 308 305 304 302 300 300 299 299 301 309 312 317 322 304 256 236 274 293 149 160 190 224 265 217 188 182 184 202 223 234 227 219 224 223 220 225 233 242 236 225 226 227 237 250 253 259 263 263 270 285 299 302 289 279 283 283 285 285 276 269 262 264 281 291 100 126 143 160 164 165 175 173 134
314 314 312 313 314 316 319 320 322 321 318 316 313 311 308 307 304 303 302 300 299 298 296 297 305 314 326 330 308 246 238 250 185 141 157 193 216 214 171 172 177 183 204 222 229 225 217 222 225 222 227 230 238 238 228 231 232 232 246 257 263 271 272 270 279 282 274 269 269 268 267 266 262 263 268 267 283 279 269 101 128 147 157 171 166 152 103 76
312 311 311 312 313 315 316 318 320 318 317 315 312 310 306 304 303 302 300 299 299 297 297 297 300 315 325 314 294 276 256 146 136 137 149 167 181 163 159 167 179 189 210 223 229 227 217 219 224 225 235 245 258 259 236 228 232 230 242 249 255 264 264 257 256 259 258 256 257 259 257 254 253 252 258 260 264 262 256 22 161 154 155 166 139 113 99 117
310 309 310 311 312 314 314 316 317 316 316 312 310 308 305 304 303 301 299 297 297 294 295 297 302 314 311 287 269 268 108 114 131 142 147 157 159 158 167 176 182 196 215 220 225 224 222 222 223 230 247 264 277 278 250 233 241 251 252 254 258 263 265 260 254 250 254 257 253 258 260 259 256 248 246 245 244 252 249 230 240 173 136 112 87 89 120 163
308 307 308 310 311 312 313 314 315 315 313 311 309 306 304 302 300 299 298 296 294 293 294 296 303 309 295 282 265 255 118 136 156 144 153 158 155 165 181 183 185 204 219 220 222 223 230 239 250 254 252 263 264 262 251 247 260 268 266 272 269 270 270 264 262 256 251 256 255 258 262 261 255 249 246 246 246 240 219 238 240 125 98 94 88 86 169 198
307 307 308 310 311 311 312 313 313 312 310 309 306 303 301 299 298 298 296 295 296 295 296 295 294 294 288 279 253 247 252 229 187 162 167 164 163 178 187 185 191 210 225 225 218 226 239 251 268 260 263 289 254 257 256 247 256 262 266 274 266 263 260 251 249 246 239 242 247 248 255 254 246 246 242 249 258 235 192 237 219 111 107 121 130 146 202 221
306 306 308 310 310 310 311 311 312 311 309 307 303 301 299 297 297 297 296 297 298 293 289 288 261 264 276 272 253 245 241 228 193 176 177 175 178 186 193 194 199 216 237 244 227 226 238 257 274 263 272 272 249 296 328 257 249 254 255 258 264 264 252 241 234 227 228 232 233 237 257 256 244 239 228 236 258 238 182 232 209 123 127 146 150 158 180 192
306 306 308 310 311 310 311 311 311 310 307 305 302 299 298 299 299 299 299 298 300 295 281 258 213 249 251 257 271 247 215 211 186 189 189 185 186 187 197 198 204 223 240 259 270 246 238 256 268 267 272 260 264 316 310 255 244 254 251 242 246 259 257 244 223 206 216 221 202 194 254 267 269 251 218 216 244 230 180 221 224 140 137 152 148 153 163 167
307 308 309 310 311 310 311 311 311 310 307 306 302 299 299 302 303 302 300 295 298 293 274 228 206 230 248 258 264 221 200 220 204 198 191 188 190 186 192 196 205 225 228 244 268 264 249 253 250 254 255 249 264 286 266 242 232 235 244 243 232 236 262 251 197 180 206 210 179 199 253 259 268 271 232 208 219 216 181 216 233 153 138 146 140 143 147 150
308 309 310 311 312 311 311 311 311 310 307 307 302 301 302 306 309 305 293 282 286 257 214 201 203 211 263 279 225 184 201 220 212 199 189 192 195 184 186 194 204 217 221 229 241 238 236 242 243 247 248 242 240 246 251 248 231 219 223 243 243 228 248 243 160 169 201 195 171 202 251 262 256 277 265 189 183 188 185 226 246 169 139 142 137 141 139 145
308 310 311 312 311 311 312 311 312 310 308 309 304 304 306 307 306 294 280 247 229 211 200 235 223 202 254 278 205 207 209 210 205 195 191 194 198 192 183 188 204 209 211 217 225 232 223 221 234 238 242 243 232 228 238 241 229 215 214 235 255 247 251 227 159 179 201 195 193 204 228 267 268 276 352 123 143 184 213 230 249 180 137 143 138 142 146 151
309 310 311 312 312 312 312 312 312 310 310 309 306 309 308 302 290 262 260 198 187 220 222 256 257 213 251 244 231 228 202 195 195 192 192 191 201 206 186 185 205 200 204 214 213 220 213 205 221 226 226 229 230 224 220 233 235 219 209 210 239 253 264 255 162 169 179 177 219 231 224 246 267 271 231 142 164 203 233 237 242 189 145 154 148 150 157 155
309 310 311 312 312 311 310 312 311 310 313 311 312 318 309 301 277 236 235 210 186 209 223 210 204 228 327 208 217 220 164 172 184 187 191 188 197 212 198 193 203 198 206 210 196 205 208 201 216 224 223 219 222 228 228 235 241 244 243 237 243 242 249 255 181 148 162 175 209 240 245 241 260 270 267 242 196 198 215 222 245 202 151 163 162 156 162 161
310 310 311 311 311 311 310 311 309 309 313 314 319 321 292 265 247 210 208 214 214 235 265 193 189 230 310 179 191 142 129 161 182 186 188 185 189 204 205 198 202 202 213 213 191 195 207 211 217 220 224 223 219 226 240 247 250 264 293 299 274 260 234 235 190 159 176 204 217 248 265 256 260 268 270 271 255 233 214 194 232 228 164 166 172 164 170 177
310 309 310 311 310 309 308 310 307 307 309 308 311 301 271 302 322 341 197 225 224 231 253 247 208 225 251 237 174 146 152 181 195 194 182 179 186 194 195 198 205 201 214 225 205 187 208 223 226 223 226 230 228 223 232 252 260 270 295 289 272 270 259 255 221 160 156 168 223 259 271 264 259 260 263 266 265 267 255 203 203 233 210 176 174 176 175 178
310 310 310 310 309 307 308 308 303 303 304 299 284 254 266 332 352 332 303 268 243 231 237 243 235 231 239 255 195 169 202 196 197 199 174 172 188 191 182 192 211 206 208 225 214 191 208 227 233 230 230 231 236 232 223 241 257 263 269 261 262 268 272 270 254 189 156 165 221 262 271 267 259 252 250 252 249 259 269 253 201 214 241 209 177 178 174 172
309 309 310 309 309 309 308 306 301 299 290 272 250 244 268 321 338 314 296 282 274 247 228 224 230 230 224 233 213 201 227 207 201 193 169 174 192 197 192 189 211 217 207 216 217 207 206 222 227 225 231 235 234 236 233 250 258 253 247 246 251 257 264 267 248 223 219 228 352 292 285 274 272 272 265 261 256 252 259 262 238 201 231 236 187 175 174 171
309 309 310 309 309 308 308 307 300 286 267 247 244 252 275 314 316 320 308 268 276 255 226 212 216 222 215 220 206 202 221 224 221 188 165 183 199 199 207 197 206 222 215 213 218 221 228 233 221 210 220 230 227 222 227 254 261 242 241 247 251 251 250 256 255 253 257 222 169 246 274 270 264 265 262 259 252 249 247 254 254 219 212 232 208 181 175 173
308 309 309 309 310 310 312 308 291 267 241 233 246 250 265 305 300 323 325 263 257 231 211 201 207 213 198 198 194 199 214 222 234 198 164 188 208 194 209 209 204 223 220 218 222 222 240 251 226 208 225 218 212 219 216 227 249 244 233 235 249 258 259 262 272 283 269 233 208 224 252 258 245 243 246 246 236 237 233 232 249 244 218 220 224 200 176 173
308 308 308 308 310 315 317 306 285 284 252 234 244 244 252 292 316 321 307 259 250 192 171 176 185 168 164 180 181 194 216 215 229 214 169 184 214 208 209 210 197 225 226 221 230 218 235 253 231 216 241 195 200 231 220 218 235 250 238 225 231 245 258 264 275 287 273 260 267 266 273 279 259 253 259 262 251 240 224 212 226 240 232 221 224 223 190 177
307 305 307 307 310 320 319 301 306 307 280 232 208 63 278 298 331 317 273 250 243 171 153 159 172 166 170 182 177 185 228 197 200 218 191 177 205 223 220 213 195 219 237 228 231 210 218 243 225 205 232 218 216 236 222 218 226 242 246 239 231 231 240 246 251 265 273 278 281 272 270 276 269 274 283 285 287 269 240 224 234 240 246 235 216 357 316 182
304 305 308 304 304 303 284 293 302 290 312 25 24 287 312 323 313 294 252 239 198 151 151 138 130 169 178 174 181 195 256 159 177 205 202 179 189 218 223 226 219 209 224 236 236 210 210 237 219 185 218 232 225 236 227 218 226 242 245 256 263 250 251 262 257 252 258 262 266 260 255 260 259 254 260 267 285 282 257 36 25 10 354 358 36 32 7 6
303 304 304 304 303 287 262 268 275 270 295 341 327 296 320 313 287 251 256 246 164 145 148 137 136 175 179 170 191 209 217 210 194 181 188 184 190 218 228 233 241 226 216 228 246 232 205 228 232 204 213 239 234 235 234 221 222 243 250 266 284 264 257 280 276 262 259 250 251 253 251 265 274 264 257 255 286 337 13 49 41 27 18 12 21 30 19 6
303 300 301 308 303 298 281 251 250 264 281 293 302 306 296 282 258 222 222 219 185 170 138 148 177 181 183 181 193 212 211 217 226 172 179 185 193 218 240 238 246 250 224 211 232 251 234 204 232 234 210 228 241 236 235 233 231 242 250 262 268 242 240 261 262 263 266 254 252 255 251 253 265 276 286 281 55 57 52 40 38 35 24 15 13 18 14 5
300 296 299 299 284 297 308 254 246 273 261 273 302 292 267 240 237 230 187 172 206 163 140 165 184 176 186 197 189 193 207 213 196 172 179 184 191 206 229 232 233 250 243 212 210 240 250 221 219 256 250 237 251 242 229 229 230 238 242 245 250 234 225 234 238 235 239 250 256 257 253 248 253 272 299 82 58 48 48 30 25 26 21 21 14 11 14 17
296 293 290 282 272 274 268 243 319 340 299 300 304 258 247 210 223 238 193 176 195 169 181 184 174 178 188 203 202 180 194 204 175 179 191 187 194 199 208 220 203 207 234 227 205 215 239 235 211 209 227 235 245 242 225 218 213 224 229 220 236 241 226 227 226 225 236 247 253 257 259 252 253 353 61 82 64 46 46 32 20 16 14 20 9 3 16 24
295 294 287 275 264 258 252 249 291 313 309 306 278 237 237 220 217 225 212 195 144 145 222 187 164 186 193 202 211 180 185 199 174 186 204 191 199 203 204 217 210 203 219 224 219 206 216 234 218 198 197 214 232 238 227 216 201 210 226 217 222 233 235 233 226 237 249 256 272 277 270 250 222 50 47 66 71 63 63 52 34 20 13 20 6 359 5 0
297 291 282 271 259 252 251 253 267 281 286 271 248 215 223 235 222 214 219 208 133 105 241 189 150 189 205 223 226 183 185 207 179 182 201 193 203 207 202 216 219 217 224 226 230 218 215 230 223 217 198 184 213 237 242 235 207 205 228 233 229 232 245 246 234 244 253 271 299 294 282 264 230 127 65 74 78 65 66 70 61 33 20 25 11 6 1 356
300 290 277 268 258 248 240 240 245 253 260 243 231 219 212 232 227 211 229 212 126 154 195 188 194 214 210 233 239 206 194 210 188 183 200 202 206 208 198 209 218 220 221 223 227 221 228 236 225 231 221 185 198 226 244 248 228 204 215 228 234 237 246 256 259 272 284 290 288 280 309 7 96 94 57 70 79 67 61 67 67 53 40 35 22 15 4 0
305 294 269 249 248 240 220 221 224 224 236 228 225 226 211 232 238 187 317 359 69 189 184 167 210 229 210 212 234 214 178 191 206 195 199 206 204 207 206 200 207 216 222 222 208 207 228 241 232 230 228 215 206 207 227 244 245 218 211 222 231 236 243 248 252 263 268 266 261 247 266 106 118 67 25 48 70 64 53 60 70 65 56 48 26 6 354 346
305 295 267 235 230 220 199 200 198 201 226 235 228 234 233 239 231 63 360 345 28 321 289 217 204 217 220 207 213 199 160 159 224 215 205 211 201 200 210 206 197 206 220 230 220 207 224 242 240 231 222 225 224 210 215 230 243 249 230 229 229 230 241 246 241 240 234 246 251 231 233 158 126 323 354 15 39 47 32 45 63 58 63 59 14 335 341 332
299 294 278 242 213 191 183 183 186 195 217 237 238 250 264 266 355 50 4 342 333 247 256 259 213 201 231 222 194 189 169 158 204 221 223 212 201 203 213 211 203 204 209 220 227 206 224 249 241 232 220 214 223 225 219 218 226 238 245 245 238 227 230 227 232 241 236 245 254 241 238 106 92 176 325 345 356 8 353 12 45 39 46 55 41 340 331 317
285 283 266 211 176 167 170 172 182 200 215 228 234 241 257 270 27 51 10 333 303 284 256 266 268 236 248 257 222 179 166 173 191 216 231 212 229 303 331 2 230 221 205 204 216 197 199 248 245 233 222 206 210 226 233 220 215 225 239 242 245 252 248 229 228 237 240 243 251 252 245 87 60 64 102 97 353 353 331 0 37 33 20 13 44 47 350 350
261 263 198 163 156 155 160 167 183 207 213 223 240 228 228 244 169 103 30 299 275 287 282 280 282 250 241 259 268 181 166 203 207 214 224 223 336 307 340 352 303 296 266 220 213 203 187 204 239 236 222 217 212 210 228 234 214 210 228 236 234 238 234 225 221 221 243 262 263 263 260 102 36 23 67 116 115 74 31 39 37 19 11 20 30 29 20 23
240 257 194 160 154 151 156 171 194 207 212 223 250 247 219 349 43 118 127 261 268 276 290 301 300 294 283 269 272 255 213 232 225 226 219 40 300 262 9 347 339 354 326 271 227 204 159 191 233 245 227 225 220 205 226 257 255 219 217 231 236 237 234 234 232 214 215 240 256 258 240 101 54 29 41 28 33 60 80 89 80 24 30 31 27 23 20 19
238 256 207 166 157 158 168 195 195 205 221 219 255 272 83 32 300 91 145 209 238 248 247 283 294 308 311 293 297 308 283 250 221 225 85 71 339 285 17 351 334 338 327 307 311 21 41 155 242 252 242 241 244 239 265 309 303 257 233 242 243 242 244 243 249 234 211 238 280 274 132 112 67 54 61 37 8 19 52 82 76 51 41 34 30 24 17 16
232 255 205 172 167 176 197 216 196 211 226 230 300 1 83 210 235 220 198 193 205 239 224 240 262 265 271 286 308 302 315 317 259 209 67 68 54 346 355 352 324 304 292 314 336 6 14 245 242 247 249 254 268 270 258 306 312 276 262 319 307 301 302 279 271 288 213 229 309 344 96 106 70 73 88 83 11 36 45 50 49 47 44 34 30 24 17 18
251 337 202 173 174 193 221 218 206 214 213 225 267 234 77 280 233 244 259 192 178 218 234 252 252 248 267 277 289 274 280 320 273 163 73 59 73 336 314 327 320 323 347 224 309 343 292 249 238 240 239 241 261 266 236 242 305 316 6 1 357 5 357 337 340 42 291 243 176 138 75 86 66 72 89 90 73 60 46 41 41 42 44 37 29 24 23 25
273 305 235 182 180 196 218 235 257 243 205 207 225 214 225 235 207 303 310 258 192 226 259 282 268 211 267 274 263 262 250 255 271 146 101 88 70 333 301 131 69 8 74 224 297 330 293 287 257 251 246 232 236 266 274 267 297 343 7 9 14 21 15 353 337 54 358 287 217 138 127 137 112 82 85 76 62 59 46 37 35 35 38 40 38 33 29 31
207 173 217 179 181 209 218 230 251 248 191 184 190 205 216 204 165 230 274 275 299 300 279 277 268 207 234 277 283 264 254 237 236 241 136 115 77 328 302 114 104 92 137 230 300 36 9 326 299 292 297 300 220 214 282 286 293 348 5 17 28 30 30 25 16 64 14 305 306 64 103 129 115 81 73 63 52 55 50 40 32 25 22 24 39 42 31 31
273 196 201 178 176 211 218 221 234 233 158 172 184 209 209 207 184 170 218 252 213 278 267 238 258 249 208 262 289 291 288 262 224 236 196 135 132 318 318 335 78 69 295 247 179 142 129 311 346 359 345 318 250 205 285 294 295 350 5 14 38 40 43 50 42 25 354 269 285 75 102 111 92 63 54 51 47 50 49 40 31 24 16 14 29 37 30 27
222 263 226 227 201 187 203 216 213 175 156 178 192 284 209 197 194 138 166 240 204 230 272 213 251 269 231 204 237 271 297 298 278 272 288 106 130 138 296 294 48 67 274 248 85 106 235 192 91 10 321 303 290 232 23 318 302 2 23 15 45 50 49 61 41 13 34 91 62 77 91 88 69 49 46 47 46 48 46 38 32 26 19 16 22 27 26 25
240 293 270 265 244 156 150 167 161 153 174 175 142 241 216 176 178 143 147 272 226 179 242 215 254 273 255 209 219 242 267 288 333 357 16 17 349 132 134 286 0 27 357 21 61 29 274 216 152 244 279 285 27 17 90 1 300 354 45 35 56 64 59 64 47 24 48 76 83 89 87 75 56 46 47 47 47 49 44 37 33 28 21 19 23 25 24 25
237 171 246 256 213 132 120 132 158 156 144 141 154 176 187 155 171 175 154 166 353 246 259 254 258 278 291 253 242 266 46 57 48 39 25 342 290 229 71 274 302 5 3 15 58 143 238 9 75 334 292 223 123 265 81 62 3 47 50 36 44 62 60 55 43 27 36 61 97 114 97 79 71 64 53 45 44 45 40 34 31 28 24 22 24 26 25 25
261 256 260 261 141 149 161 146 176 162 139 198 195 145 143 158 164 168 112 124 144 218 271 290 279 289 312 316 272 277 82 98 135 267 279 289 279 266 113 235 243 280 348 352 358 279 254 348 90 269 277 258 96 349 38 68 77 62 43 28 26 44 58 60 50 40 29 17 32 84 79 66 80 81 62 47 43 44 40 33 27 27 26 26 27 27 26 27
283 270 265 268 130 190 207 154 175 175 125 99 113 115 158 197 148 126 68 341 230 187 221 347 0 326 294 277 314 4 37 24 322 314 306 292 286 280 266 251 251 262 286 283 293 5 326 286 247 247 269 330 66 46 53 80 102 56 28 22 21 35 59 68 53 43 37 15 8 56 48 31 49 64 60 49 43 43 40 32 26 26 27 29 32 32 32 33